EW1296 Weather Reports


time (UTC)temp
F
wind
direction
speed
knots
gust
knots
rain 1hr
in
rain 24hr
in
rain mn
in
humidity
%
barometer
mb
20260906203036 78 225 3.5 7.8 0.00 0.00 0.00 63 1014.9
20260906202517 78 135 1.7 4.3 0.00 0.00 0.00 63 1015.0
20260906202016 78 135 2.6 8.7 0.00 0.00 0.00 63 1015.0
20260906201536 78 113 1.7 9.6 0.00 0.00 0.00 63 1014.9
20260906201017 78 180 2.6 7.0 0.00 0.00 0.00 64 1015.0
20260906200517 78 203 2.6 7.8 0.00 0.00 0.00 64 1015.1
20260906200016 78 135 2.6 7.0 0.00 0.00 0.00 63 1015.0
20260906195517 78 225 2.6 6.1 0.00 0.00 0.00 63 1014.9
20260906195016 77 90 2.6 7.0 0.00 0.00 0.00 63 1014.9
20260906194516 77 135 1.7 6.1 0.00 0.00 0.00 64 1014.8
20260906194038 77 135 0.9 4.3 0.00 0.00 0.00 66 1014.7
20260906193517 76 135 2.6 8.7 0.00 0.00 0.00 66 1014.8
20260906193036 76 113 2.6 6.1 0.00 0.00 0.00 66 1014.8
20260906192516 76 135 2.6 7.0 0.00 0.00 0.00 67 1014.8
20260906192016 75 135 3.5 7.0 0.00 0.00 0.00 69 1014.8
20260906191516 75 135 3.5 6.1 0.00 0.00 0.00 69 1014.9
20260906191036 74 135 2.6 5.2 0.00 0.00 0.00 69 1014.9
20260906190517 74 135 2.6 7.0 0.00 0.00 0.00 69 1014.9
20260906190016 75 135 3.5 7.0 0.00 0.00 0.00 69 1014.9
20260906185516 75 113 2.6 7.0 0.00 0.00 0.00 69 1014.9
20260906185038 75 113 3.5 7.8 0.00 0.00 0.00 69 1014.9
20260906184516 75 135 3.5 9.6 0.00 0.00 0.00 69 1014.9
20260906184016 74 113 4.3 8.7 0.00 0.00 0.00 69 1014.9
20260906183516 75 113 2.6 7.0 0.00 0.00 0.00 68 1015.1
20260906183016 75 135 3.5 7.8 0.00 0.00 0.00 68 1015.1
20260906182517 75 135 4.3 8.7 0.00 0.00 0.00 66 1015.1
20260906182017 76 135 3.5 7.0 0.00 0.00 0.00 65 1015.1
20260906181537 77 135 2.6 6.1 0.00 0.00 0.00 62 1015.1
20260906181057 78 113 4.3 7.8 0.00 0.00 0.00 61 1015.1
20260906180537 78 113 1.7 6.1 0.00 0.00 0.00 56 1015.0
20260906180016 78 45 1.7 5.2 0.00 0.00 0.00 55 1014.9
20260906175516 77 113 2.6 6.1 0.00 0.00 0.00 57 1014.9
20260906175058 77 68 2.6 6.1 0.00 0.00 0.00 58 1015.0
20260906174516 77 45 2.6 6.1 0.00 0.00 0.00 58 1015.0
20260906174017 77 23 3.5 9.6 0.00 0.00 0.00 58 1015.0
20260906173517 78 68 2.6 6.1 0.00 0.00 0.00 58 1015.0
20260906173016 77 68 2.6 6.1 0.00 0.00 0.00 59 1015.1
20260906172516 76 68 1.7 6.1 0.00 0.00 0.00 61 1015.1
20260906172037 76 113 1.7 4.3 0.00 0.00 0.00 62 1015.2
20260906171516 76 45 1.7 4.3 0.00 0.00 0.00 63 1015.3
20260906171016 76 293 0.9 5.2 0.00 0.00 0.00 64 1015.3
20260906170516 76 293 0.9 3.5 0.00 0.00 0.00 65 1015.3
20260906170016 76 113 0.9 2.6 0.00 0.00 0.00 64 1015.2
20260906165517 76 135 1.7 3.5 0.00 0.00 0.00 64 1015.2
20260906165020 76 135 0.9 2.6 0.00 0.00 0.00 65 1015.2
20260906164520 76 225 1.7 3.5 0.00 0.00 0.00 63 1015.3
20260906164037 77 225 1.7 5.2 0.00 0.00 0.00 63 1015.3
20260906163516 76 135 0.9 3.5 0.00 0.00 0.00 62 1015.3
20260906163015 76 158 0.9 3.5 0.00 0.00 0.00 61 1015.3
20260906162536 76 68 1.7 5.2 0.00 0.00 0.00 62 1015.2
20260906162015 75 68 1.7 4.3 0.00 0.00 0.00 63 1015.2
20260906161516 75 113 2.6 6.1 0.00 0.00 0.00 63 1015.3
20260906161016 75 68 0.9 3.5 0.00 0.00 0.00 64 1015.3
20260906160515 75 0 0.9 2.6 0.00 0.00 0.00 64 1015.3
20260906160015 74 45 0.9 3.5 0.00 0.00 0.00 64 1015.3
20260906155537 74 23 1.7 3.5 0.00 0.00 0.00 64 1015.3
20260906155016 75 23 1.7 4.3 0.00 0.00 0.00 64 1015.4
20260906154516 75 45 1.7 5.2 0.00 0.00 0.00 64 1015.4
20260906154035 75 68 0.9 2.6 0.00 0.00 0.00 64 1015.4
20260906153537 75 45 0.9 2.6 0.00 0.00 0.00 64 1015.5
20260906153017 75 45 0.9 3.5 0.00 0.00 0.00 65 1015.4
20260906152517 75 45 1.7 6.1 0.00 0.00 0.00 64 1015.4
20260906152015 75 90 0.9 1.7 0.00 0.00 0.00 65 1015.4
20260906151515 75 0 1.7 7.0 0.00 0.00 0.00 66 1015.3
20260906151015 74 158 0.9 3.5 0.00 0.00 0.00 67 1015.4
20260906150515 73 68 0.9 5.2 0.00 0.00 0.00 68 1015.4
20260906150036 73 68 0.9 2.6 0.00 0.00 0.00 68 1015.4
20260906145515 73 293 0.9 3.5 0.00 0.00 0.00 68 1015.4
20260906145015 73 68 1.7 3.5 0.00 0.00 0.00 68 1015.4
20260906144516 73 338 1.7 3.5 0.00 0.00 0.00 67 1015.5
20260906144015 73 45 0.9 3.5 0.00 0.00 0.00 67 1015.4
20260906143515 73 0 1.7 4.3 0.00 0.00 0.00 66 1015.4
20260906143016 73 0 2.6 5.2 0.00 0.00 0.00 65 1015.4
20260906142515 74 315 2.6 6.1 0.00 0.00 0.00 63 1015.4
20260906142016 74 315 1.7 3.5 0.00 0.00 0.00 63 1015.2
20260906141515 74 270 1.7 3.5 0.00 0.00 0.00 62 1015.2
20260906141015 75 90 0.9 3.5 0.00 0.00 0.00 61 1015.1
20260906140516 74 23 0.9 2.6 0.00 0.00 0.00 63 1015.1
20260906140057 74 135 1.7 3.5 0.00 0.00 0.00 64 1015.1
20260906135515 73 68 0.9 2.6 0.00 0.00 0.00 64 1015.1
20260906135015 73 68 0.9 2.6 0.00 0.00 0.00 63 1015.2
20260906134515 73 68 1.7 7.0 0.00 0.00 0.00 63 1015.2
20260906134036 73 90 0.9 4.3 0.00 0.00 0.00 64 1015.1
20260906133515 73 23 0.9 3.5 0.00 0.00 0.00 64 1015.1
20260906133037 73 45 1.7 4.3 0.00 0.00 0.00 64 1015.2
20260906132535 73 68 1.7 3.5 0.00 0.00 0.00 63 1015.2
20260906132015 74 68 2.6 6.1 0.00 0.00 0.00 63 1015.1
20260906131515 74 338 1.7 3.5 0.00 0.00 0.00 63 1015.1
20260906131017 74 113 1.7 6.1 0.00 0.00 0.00 64 1015.1
20260906130536 73 113 2.6 7.0 0.00 0.00 0.00 64 1015.0
20260906130015 73 135 1.7 7.0 0.00 0.00 0.00 65 1015.0
20260906125515 73 113 1.7 6.1 0.00 0.00 0.00 65 1014.9
20260906125015 73 90 2.6 7.0 0.00 0.00 0.00 65 1014.9
20260906124515 73 68 1.7 4.3 0.00 0.00 0.00 66 1014.9
20260906124035 73 90 1.7 4.3 0.00 0.00 0.00 66 1014.8
20260906123517 72 90 1.7 5.2 0.00 0.00 0.00 66 1014.8
20260906123017 72 90 0.9 3.5 0.00 0.00 0.00 67 1014.7
20260906122538 72 135 1.7 3.5 0.00 0.00 0.00 68 1014.8
20260906122017 71 68 0.9 4.3 0.00 0.00 0.00 68 1014.7
20260906121517 71 68 0.9 3.5 0.00 0.00 0.00 69 1014.7
20260906121017 71 135 1.7 6.1 0.00 0.00 0.00 69 1014.8
20260906120517 70 113 2.6 7.0 0.00 0.00 0.00 70 1014.7
20260906120017 70 113 1.7 2.6 0.00 0.00 0.00 71 1014.7
20260906115538 70 90 1.7 5.2 0.00 0.00 0.00 71 1014.6
20260906115017 69 113 1.7 5.2 0.00 0.00 0.00 72 1014.5
20260906114517 69 68 0.9 4.3 0.00 0.00 0.00 73 1014.5
20260906114037 69 135 0.9 3.5 0.00 0.00 0.00 74 1014.4
20260906113537 68 90 0.9 3.5 0.00 0.00 0.00 76 1014.4
20260906113018 68 68 0.9 3.5 0.00 0.00 0.00 77 1014.3
20260906112538 68 135 0.9 3.5 0.00 0.00 0.00 78 1014.2
20260906112018 67 68 0.9 5.2 0.00 0.00 0.00 79 1014.1
20260906111517 67 68 1.7 5.2 0.00 0.00 0.00 80 1014.0
20260906111017 67 113 2.6 6.1 0.00 0.00 0.00 81 1014.0
20260906110517 67 68 0.9 3.5 0.00 0.00 0.00 81 1013.9
20260906110018 67 23 0.9 2.6 0.00 0.00 0.00 82 1013.9
20260906105519 67 45 2.6 7.0 0.00 0.00 0.00 83 1013.9
20260906105039 67 68 1.7 7.0 0.00 0.00 0.00 84 1013.9
20260906104537 67 68 1.7 6.1 0.00 0.00 0.00 84 1013.7
20260906104017 67 90 1.7 4.3 0.00 0.00 0.00 85 1013.8
20260906103537 67 68 1.7 5.2 0.00 0.00 0.00 85 1013.7
20260906103017 68 45 1.7 3.5 0.00 0.00 0.00 86 1013.7
20260906102518 68 113 0.9 3.5 0.00 0.00 0.00 86 1013.5
20260906102037 68 68 1.7 4.3 0.00 0.00 0.00 86 1013.5
20260906101517 67 90 0.9 3.5 0.00 0.00 0.00 86 1013.3
20260906101018 68 23 1.7 4.3 0.00 0.00 0.00 86 1013.3
20260906100517 68 68 1.7 4.3 0.00 0.00 0.00 86 1013.3
20260906100018 68 68 1.7 4.3 0.00 0.00 0.00 86 1013.2
20260906095517 68 68 0.9 1.7 0.00 0.00 0.00 86 1013.1
20260906095017 68 68 0.9 1.7 0.00 0.00 0.00 86 1013.1
20260906094517 68 0.0 1.7 0.00 0.00 0.00 86 1013.1
20260906094017 68 90 0.9 3.5 0.00 0.00 0.00 86 1013.0
20260906093538 68 0.0 1.7 0.00 0.00 0.00 86 1013.0
20260906093017 68 0.0 1.7 0.00 0.00 0.00 86 1013.0
20260906092517 68 90 0.9 2.6 0.00 0.00 0.00 85 1012.8
20260906092037 68 90 0.9 2.6 0.00 0.00 0.00 85 1012.8
20260906091537 68 90 0.9 4.3 0.00 0.00 0.00 85 1012.7
20260906091017 68 68 0.9 2.6 0.00 0.00 0.00 85 1012.5
20260906090517 68 23 0.9 2.6 0.00 0.00 0.00 85 1012.5
20260906090017 68 0.0 1.7 0.00 0.00 0.00 84 1012.5
20260906085517 68 113 0.9 2.6 0.00 0.00 0.00 84 1012.5
20260906085017 68 113 0.9 2.6 0.00 0.00 0.00 84 1012.5
20260906084517 69 90 0.9 3.5 0.00 0.00 0.00 84 1012.5
20260906084037 69 68 0.9 2.6 0.00 0.00 0.00 83 1012.6
20260906083538 69 68 0.9 2.6 0.00 0.00 0.00 83 1012.5
20260906083018 69 135 1.7 5.2 0.00 0.00 0.00 82 1012.5
20260906082517 69 68 1.7 5.2 0.00 0.00 0.00 81 1012.3
20260906082017 69 68 1.7 4.3 0.00 0.00 0.00 81 1012.3
20260906081517 69 135 1.7 3.5 0.00 0.00 0.00 80 1012.3
20260906081017 69 68 1.7 4.3 0.00 0.00 0.00 80 1012.2
20260906080518 69 68 1.7 6.1 0.00 0.00 0.00 79 1012.3
20260906080017 69 68 1.7 4.3 0.00 0.00 0.00 80 1012.2
20260906075517 70 68 1.7 6.1 0.00 0.00 0.00 80 1012.2
20260906075017 70 90 2.6 7.0 0.00 0.00 0.00 80 1012.2
20260906074558 70 113 1.7 6.1 0.00 0.00 0.00 81 1012.1
20260906074017 70 45 0.9 4.3 0.00 0.00 0.00 81 1012.2
20260906073518 70 90 0.9 3.5 0.00 0.00 0.00 81 1012.1
20260906073017 70 90 0.9 4.3 0.00 0.00 0.00 80 1012.1
20260906072538 70 68 0.9 2.6 0.00 0.00 0.00 80 1012.2
20260906072017 70 68 1.7 4.3 0.00 0.00 0.00 79 1012.1
20260906071518 71 90 0.9 2.6 0.00 0.00 0.00 78 1012.1
20260906071017 71 90 0.9 2.6 0.00 0.00 0.00 77 1012.0
20260906070517 71 90 0.9 3.5 0.00 0.00 0.00 76 1012.0
20260906070017 71 113 0.9 4.3 0.00 0.00 0.00 75 1012.0
20260906065517 71 23 1.7 3.5 0.00 0.00 0.00 75 1011.9
20260906065017 71 23 1.7 3.5 0.00 0.00 0.00 74 1011.9
20260906064518 71 68 0.9 2.6 0.00 0.00 0.00 73 1012.0
20260906064017 71 23 0.9 2.6 0.00 0.00 0.00 72 1012.0
20260906063517 71 68 0.9 6.1 0.00 0.00 0.00 72 1012.0
20260906063017 72 68 0.9 3.5 0.00 0.00 0.00 72 1012.0
20260906062517 72 113 0.9 3.5 0.00 0.00 0.00 72 1012.1
20260906062017 72 45 1.7 3.5 0.00 0.00 0.00 71 1012.1
20260906061516 72 68 0.9 3.5 0.00 0.00 0.00 71 1012.2
20260906061017 72 68 1.7 2.6 0.00 0.00 0.00 71 1012.2
20260906060517 72 90 0.9 2.6 0.00 0.00 0.00 71 1012.2
20260906060057 72 68 0.9 3.5 0.00 0.00 0.00 72 1012.4
20260906055517 72 68 0.9 2.6 0.00 0.00 0.00 72 1012.4
20260906055017 72 0.0 0.9 0.00 0.00 0.00 72 1012.5
20260906054517 72 0.0 1.7 0.00 0.00 0.00 72 1012.4
20260906054017 72 0.0 2.6 0.00 0.00 0.00 72 1012.4
20260906053517 72 0.0 1.7 0.00 0.00 0.00 72 1012.5
20260906053017 72 68 0.9 1.7 0.00 0.00 0.00 72 1012.4
20260906052517 72 68 0.9 3.5 0.00 0.00 0.00 71 1012.4
20260906052016 72 68 0.9 1.7 0.00 0.00 0.00 71 1012.5
20260906051537 72 90 0.9 4.3 0.00 0.00 0.00 71 1012.5
20260906051017 72 45 0.9 3.5 0.00 0.00 0.00 71 1012.5
20260906050538 72 68 0.9 3.5 0.00 0.00 0.00 71 1012.4
20260906050017 72 45 0.9 2.6 0.00 0.00 0.00 71 1012.5
20260906045517 72 68 0.9 3.5 0.00 0.00 0.00 71 1012.6
20260906045016 72 45 1.7 4.3 0.00 0.00 0.00 71 1012.5
20260906044517 72 23 0.9 2.6 0.00 0.00 0.00 71 1012.6
20260906044017 72 23 0.9 4.3 0.00 0.00 0.00 71 1012.6
20260906043517 72 45 1.7 4.3 0.00 0.00 0.00 71 1012.5
20260906043016 73 45 1.7 4.3 0.00 0.00 0.00 71 1012.4
20260906042539 73 45 1.7 2.6 0.00 0.00 0.00 70 1012.4
20260906042018 73 90 1.7 3.5 0.00 0.00 0.00 70 1012.4
20260906041517 73 45 1.7 4.3 0.00 0.00 0.00 70 1012.4
20260906041017 73 45 2.6 6.1 0.00 0.00 0.00 69 1012.4
20260906040516 73 68 2.6 7.8 0.00 0.00 0.00 68 1012.5
20260906040018 73 23 1.7 5.2 0.00 0.00 0.00 68 1012.5
20260906035517 73 23 1.7 4.3 0.00 0.00 0.00 67 1012.5
20260906035018 73 45 0.9 3.5 0.00 0.00 0.00 67 1012.5
20260906034517 73 68 2.6 6.1 0.00 0.00 0.00 67 1012.5
20260906034037 73 45 1.7 5.2 0.00 0.00 0.00 66 1012.4
20260906033517 73 45 1.7 4.3 0.00 0.00 0.00 66 1012.4
20260906033017 74 45 2.6 6.1 0.00 0.00 0.00 65 1012.3
20260906032539 74 23 1.7 7.0 0.00 0.00 0.00 65 1012.3
20260906032017 74 23 1.7 3.5 0.00 0.00 0.00 65 1012.2
20260906031518 74 68 0.9 2.6 0.00 0.00 0.00 64 1012.2
20260906031018 74 90 1.7 4.3 0.00 0.00 0.00 64 1012.1
20260906030518 74 90 0.9 3.5 0.00 0.00 0.00 64 1012.1
20260906030037 74 45 1.7 5.2 0.00 0.00 0.00 63 1012.1
20260906025517 74 68 3.5 9.6 0.00 0.00 0.00 63 1012.1
20260906025017 75 23 1.7 7.0 0.00 0.00 0.00 63 1012.1
20260906024517 75 45 1.7 5.2 0.00 0.00 0.00 63 1012.1
20260906024017 75 0 1.7 4.3 0.00 0.00 0.00 64 1012.0
20260906023537 75 45 1.7 7.0 0.00 0.00 0.00 64 1012.0
20260906023017 75 338 1.7 4.3 0.00 0.00 0.00 64 1012.0
20260906022517 75 45 0.9 1.7 0.00 0.00 0.00 62 1012.0
20260906022017 75 45 0.9 2.6 0.00 0.00 0.00 62 1011.9
20260906021518 75 45 0.9 3.5 0.00 0.00 0.00 61 1012.0
20260906021017 76 90 1.7 3.5 0.00 0.00 0.00 61 1012.0
20260906020517 76 45 1.7 3.5 0.00 0.00 0.00 61 1012.0
20260906020017 76 23 1.7 4.3 0.00 0.00 0.00 61 1011.9
20260906015517 76 0 1.7 3.5 0.00 0.00 0.00 60 1011.8
20260906015037 76 45 1.7 4.3 0.00 0.00 0.00 60 1011.7
20260906014517 76 45 2.6 7.8 0.00 0.00 0.00 59 1011.7
20260906014017 76 23 1.7 5.2 0.00 0.00 0.00 59 1011.7
20260906013519 76 45 1.7 4.3 0.00 0.00 0.00 59 1011.7
20260906013037 76 338 1.7 4.3 0.00 0.00 0.00 57 1011.6
20260906012517 76 45 1.7 7.8 0.00 0.00 0.00 56 1011.6
20260906012017 76 45 1.7 4.3 0.00 0.00 0.00 57 1011.6
20260906011518 76 23 1.7 7.0 0.00 0.00 0.00 57 1011.6
20260906011018 76 338 2.6 9.6 0.00 0.00 0.00 58 1011.5
20260906010517 77 45 2.6 7.0 0.00 0.00 0.00 59 1011.5
20260906010017 77 338 2.6 7.0 0.00 0.00 0.00 60 1011.5
20260906005516 77 338 3.5 8.7 0.00 0.00 0.00 60 1011.4
20260906005018 77 338 2.6 7.0 0.00 0.00 0.00 59 1011.4
20260906004516 77 0 1.7 7.0 0.00 0.00 0.00 58 1011.3
20260906004016 77 0 1.7 3.5 0.00 0.00 0.00 58 1011.3
20260906003517 77 338 1.7 4.3 0.00 0.00 0.00 58 1011.2
20260906003017 77 45 1.7 5.2 0.00 0.00 0.00 58 1011.1
20260906002518 77 0 0.9 3.5 0.00 0.00 0.00 58 1011.1
20260906002018 77 45 1.7 7.0 0.00 0.00 0.00 57 1011.0
20260906001537 77 338 1.7 6.1 0.00 0.00 0.00 57 1010.8
20260906001017 77 0 2.6 7.0 0.00 0.00 0.00 58 1010.7
20260906000517 77 338 1.7 4.3 0.00 0.00 0.00 57 1010.7
20260906000017 78 23 1.7 4.3 0.00 0.00 0.00 57 1010.7
20260905235537 78 315 2.6 7.8 0.00 0.00 0.00 58 1010.6
20260905235016 78 315 2.6 7.0 0.00 0.00 0.00 58 1010.6
20260905234518 78 338 1.7 4.3 0.00 0.00 0.00 57 1010.5
20260905234016 78 338 1.7 6.1 0.00 0.00 0.00 56 1010.5
20260905233517 78 338 2.6 7.8 0.00 0.00 0.00 55 1010.5
20260905233038 78 338 2.6 6.1 0.00 0.00 0.00 55 1010.5
20260905232537 79 0 2.6 7.0 0.00 0.00 0.00 54 1010.5
20260905232016 79 0 2.6 7.0 0.00 0.00 0.00 53 1010.5
20260905231537 79 338 1.7 4.3 0.00 0.00 0.00 53 1010.5
20260905231017 79 0 2.6 7.8 0.00 0.00 0.00 52 1010.6
20260905230517 79 338 1.7 5.2 0.00 0.00 0.00 51 1010.6
20260905230017 79 45 2.6 7.0 0.00 0.00 0.00 51 1010.5
20260905225517 80 315 2.6 7.8 0.00 0.00 0.00 51 1010.4
20260905225016 80 0 2.6 8.7 0.00 0.00 0.00 50 1010.4
20260905224518 80 338 2.6 8.7 0.00 0.00 0.00 49 1010.3
20260905224017 80 338 3.5 8.7 0.00 0.00 0.00 50 1010.3
20260905223516 80 338 2.6 7.8 0.00 0.00 0.00 50 1010.3
20260905223037 81 0 2.6 7.0 0.00 0.00 0.00 49 1010.4
20260905222517 81 23 2.6 6.1 0.00 0.00 0.00 50 1010.4
20260905222016 81 315 1.7 5.2 0.00 0.00 0.00 50 1010.3
20260905221517 81 0 2.6 8.7 0.00 0.00 0.00 49 1010.2
20260905221017 81 0 1.7 6.1 0.00 0.00 0.00 49 1010.0
20260905220516 81 45 1.7 5.2 0.00 0.00 0.00 49 1010.0
20260905220016 81 338 1.7 7.0 0.00 0.00 0.00 49 1010.0
20260905215559 81 23 1.7 7.8 0.00 0.00 0.00 48 1010.0
20260905215016 81 23 2.6 5.2 0.00 0.00 0.00 48 1010.0
20260905214518 81 0 1.7 4.3 0.00 0.00 0.00 49 1010.0
20260905214016 81 0 3.5 9.6 0.00 0.00 0.00 48 1010.0
20260905213517 82 23 2.6 7.8 0.00 0.00 0.00 48 1010.0
20260905213017 82 338 1.7 4.3 0.00 0.00 0.00 47 1010.0
20260905212517 82 0 3.5 8.7 0.00 0.00 0.00 47 1010.0
20260905212017 82 338 1.7 5.2 0.00 0.00 0.00 47 1010.0
20260905211516 82 0 1.7 7.0 0.00 0.00 0.00 47 1009.9
20260905211016 82 23 1.7 7.8 0.00 0.00 0.00 47 1010.0
20260905210516 82 338 2.6 7.0 0.00 0.00 0.00 47 1010.0
20260905210017 82 338 3.5 7.0 0.00 0.00 0.00 47 1010.0
20260905205518 82 45 2.6 9.6 0.00 0.00 0.00 47 1010.0
20260905205016 82 338 2.6 5.2 0.00 0.00 0.00 48 1009.9
20260905204516 83 0 2.6 7.8 0.00 0.00 0.00 48 1009.9
20260905204036 82 0 1.7 4.3 0.00 0.00 0.00 47 1009.9
20260905203516 82 0 2.6 5.2 0.00 0.00 0.00 48 1009.9